Content
SEND FEEDBACK

Daily
Averages
Monthly
Summary
United States of America

ACHANG BAY, GUAM


Home > North America > United States > Guam
Elevation: 30 feet     Latitude: 13 16N     Longitude: 144 45E

WEATHER
 
SELECT A DAY
Number of Records: 352,394;   Date Range: 1/1/95 - 10/29/14
 
SHARE

PRINT THIS DATA

[ ← Previous Day ]
WEATHER ALMANAC - JANUARY 26, 2013
[ Next Day → ]
[ °C ]   °F
Weather ElementAverageHighLow
Temperature78 °F82.8 °F (1:55 pm)76.3 °F (12:55 am)
Dewpoint67.8 °F69.8 °F (12:29 am)63 °F (4:55 pm)
Humidity71 %79 % (12:55 am)55 % (4:55 pm)
Barometer29.88 in29.93 in (8:55 am)29.81 in (3:55 pm)
Wind Speed15.5 mph19.6 mph (9:55 am)
Wind Gust25.3 mph (9:54 am)
Weather ElementAverage
Visibility10 mi
Wind DirectionNNE (35.7 °)

Weather ElementTotal
Precipitation---
Cooling Degree Days14.6 (Base 65)
Growing Degree Days29.6 (Base 50)
Averaged from 60 records on January 26, 2013
WEATHER CONDITIONS BREAKOUT
WIND DIRECTION BREAKOUT
WEATHER BY HOUR - JANUARY 26, 2013
[ °C ]   °F
Local TimeTemperatureDewpointHumidityBarometerVisibilityWind DirectionWind SpeedGust SpeedPrecipitationEventsConditions
12:24 AM77.0 °F68.0 °F74 %29.87 in10.0 miNE (40°)13.8 mphOvercast
12:29 AM77.0 °F69.8 °F78 %29.87 in10.0 miNNE (30°)11.5 mphOvercast
12:32 AM77.0 °F68.0 °F74 %29.87 in10.0 miNE (40°)13.8 mphOvercast
12:55 AM76.3 °F69.4 °F79 %29.88 in10.0 miNNE (30°)8.1 mphOvercast
1:55 AM76.6 °F69.4 °F78 %29.87 in10.0 miNE (40°)16.1 mphMostly Cloudy
2:55 AM76.3 °F69.1 °F78 %29.86 in10.0 miNNE (30°)13.8 mphMostly Cloudy
2:59 AM77.0 °F69.8 °F78 %29.86 in10.0 miNE (40°)12.7 mphScattered Clouds
3:00 AM77.0 °F69.8 °F78 %29.86 in10.0 miNNE (30°)12.7 mphMostly Cloudy
3:55 AM76.3 °F68.7 °F77 %29.85 in10.0 miNNE (30°)13.8 mphMostly Cloudy
4:12 AM77.0 °F68.0 °F74 %29.86 in10.0 miNNE (30°)13.8 mphScattered Clouds
4:16 AM77.0 °F68.0 °F74 %29.86 in10.0 miNNE (20°)16.1 mphMostly Cloudy
4:17 AM77.0 °F68.0 °F74 %29.86 in10.0 miNNE (20°)16.1 mphScattered Clouds
4:18 AM77.0 °F68.0 °F74 %29.86 in10.0 miNNE (20°)15.0 mphMostly Cloudy
4:55 AM76.3 °F68.4 °F76 %29.86 in10.0 miNE (40°)16.1 mphMostly Cloudy
4:57 AM77.0 °F68.0 °F74 %29.86 in10.0 miNNE (30°)16.1 mphScattered Clouds
5:03 AM77.0 °F69.8 °F78 %29.86 in10.0 miNE (40°)13.8 mphMostly Cloudy
5:06 AM77.0 °F68.0 °F74 %29.86 in10.0 miNE (40°)13.8 mphMostly Cloudy
5:08 AM77.0 °F68.0 °F74 %29.86 in10.0 miNE (40°)18.4 mphMostly Cloudy
5:14 AM77.0 °F68.0 °F74 %29.86 in10.0 miNE (40°)15.0 mphMostly Cloudy
5:18 AM77.0 °F68.0 °F74 %29.86 in10.0 miNNE (30°)13.8 mphMostly Cloudy
5:55 AM76.3 °F68.2 °F76 %29.87 in10.0 miNNE (30°)16.1 mphMostly Cloudy
6:00 AM77.0 °F68.0 °F74 %29.87 in10.0 miNNE (30°)15.0 mphMostly Cloudy
6:08 AM77.0 °F68.0 °F74 %29.88 in10.0 miNNE (30°)12.7 mph21.9 mphMostly Cloudy
6:20 AM77.0 °F68.0 °F74 %29.88 in10.0 miNNE (30°)13.8 mphMostly Cloudy
6:21 AM77.0 °F68.0 °F74 %29.88 in10.0 miNNE (30°)12.7 mphOvercast
6:30 AM77.0 °F68.0 °F74 %29.88 in10.0 miNE (40°)16.1 mphMostly Cloudy
6:31 AM77.0 °F68.0 °F74 %29.88 in10.0 miNE (40°)16.1 mphMostly Cloudy
6:55 AM76.5 °F68.7 °F77 %29.88 in10.0 miNNE (30°)15.0 mphMostly Cloudy
7:31 AM77.0 °F68.0 °F74 %29.90 in10.0 miNNE (30°)17.3 mphScattered Clouds
7:39 AM77.0 °F68.0 °F74 %29.90 in10.0 miNNE (30°)15.0 mphMostly Cloudy
7:48 AM77.0 °F68.0 °F74 %29.90 in10.0 miNE (40°)15.0 mphMostly Cloudy
7:55 AM77.0 °F67.8 °F73 %29.90 in10.0 miNE (40°)18.4 mphScattered Clouds
8:52 AM80.6 °F68.0 °F65 %29.92 in10.0 miNE (40°)15.0 mphMostly Cloudy
8:55 AM79.5 °F68.7 °F69 %29.93 in10.0 miNE (50°)16.1 mphMostly Cloudy
9:04 AM80.6 °F68.0 °F65 %29.93 in10.0 miNNE (30°)13.8 mphOvercast
9:05 AM80.6 °F68.0 °F65 %29.93 in10.0 miNNE (30°)15.0 mphOvercast
9:39 AM80.6 °F68.0 °F65 %29.92 in10.0 miNNE (30°)16.1 mphMostly Cloudy
9:48 AM80.6 °F68.0 °F65 %29.93 in10.0 miNNE (30°)17.3 mph23.0 mphMostly Cloudy
9:50 AM80.6 °F68.0 °F65 %29.93 in10.0 miNE (40°)17.3 mph23.0 mphMostly Cloudy
9:54 AM80.6 °F68.0 °F65 %29.92 in10.0 miNNE (30°)18.4 mph25.3 mphMostly Cloudy
9:55 AM80.8 °F68.4 °F66 %29.92 in10.0 miNNE (30°)19.6 mph25.3 mphMostly Cloudy
10:01 AM80.6 °F68.0 °F65 %29.92 in10.0 miNE (40°)16.1 mph25.3 mphMostly Cloudy
10:55 AM81.3 °F67.6 °F63 %29.91 in10.0 miNE (40°)19.6 mphScattered Clouds
11:55 AM82.0 °F66.4 °F59 %29.88 in10.0 miNNE (30°)17.3 mph23.0 mphScattered Clouds
12:55 PM81.9 °F66.4 °F59 %29.86 in10.0 miNNE (20°)16.1 mphScattered Clouds
1:55 PM82.8 °F66.4 °F58 %29.83 in10.0 miNE (40°)17.3 mph23.0 mphClear
2:55 PM82.4 °F65.1 °F56 %29.82 in10.0 miNNE (30°)16.1 mphClear
3:55 PM81.9 °F65.1 °F57 %29.81 in10.0 miNE (40°)15.0 mphClear
4:55 PM80.2 °F63.0 °F55 %29.83 in10.0 miNNE (30°)17.3 mphClear
5:55 PM77.9 °F65.1 °F65 %29.84 in10.0 miNE (40°)16.1 mph20.7 mphPartly Cloudy
6:55 PM77.0 °F64.9 °F66 %29.85 in10.0 miNE (40°)15.0 mphClear
7:55 PM76.6 °F65.8 °F69 %29.87 in10.0 miNE (50°)17.3 mphClear
8:55 PM76.5 °F67.1 °F73 %29.89 in10.0 miNE (40°)15.0 mphScattered Clouds
9:13 PM77.0 °F68.0 °F74 %29.89 in10.0 miNE (50°)15.0 mphMostly Cloudy
9:20 PM77.0 °F68.0 °F74 %29.89 in10.0 miNE (50°)17.3 mphMostly Cloudy
9:55 PM76.6 °F68.0 °F75 %29.90 in10.0 miNE (40°)15.0 mphScattered Clouds
9:59 PM77.0 °F68.0 °F74 %29.90 in10.0 miNE (50°)19.6 mphMostly Cloudy
10:28 PM77.0 °F68.0 °F74 %29.90 in10.0 miNE (40°)15.0 mphMostly Cloudy
10:55 PM76.6 °F67.3 °F73 %29.90 in10.0 miNE (50°)16.1 mphMostly Cloudy
11:55 PM76.5 °F67.1 °F73 %29.90 in10.0 miNE (50°)17.3 mphScattered Clouds
Hourly data recorded from PGUA, located miles away from Achang Bay, Guam







STORIES FROM OUR PARTNERS